Regional Weather Roundup
Issued by NWS

Home | Current Version | Previous Version | Text Only | Print | Product List | Glossary On
Versions: 1 2 3 4 5 6 7 8 9 10 11 12 13 14 15 16 17 18 19 20 21 22 23 24 25 26 27 28 29 30 31 32 33 34 35 36 37 38 39 40 41 42 43 44 45 46 47 48 49 50
000
ASUS42 KTBW 010610
RWRFL
FLORIDA REGIONAL WEATHER ROUNDUP
NATIONAL WEATHER SERVICE TAMPA BAY RUSKIN FL
200 AM EDT FRI AUG 01 2014

NOTE: "FAIR" INDICATES FEW OR NO CLOUDS BELOW 12,000 FEET WITH NO
SIGNIFICANT WEATHER AND/OR OBSTRUCTIONS TO VISIBILITY.


FLZ001>010-012>015-112-114-115-010700-
PANHANDLE FLORIDA

CITY           SKY/WX    TMP DP  RH WIND       PRES   REMARKS
PENSACOLA      CLEAR     73  64  73 N6        29.97F
PENSACOLA NAS  CLEAR     71  68  90 N5        29.97F
MILTON NAS     PTCLDY    71  63  75 N5        29.98F
CRESTVIEW      CLEAR     67  65  93 CALM      30.00S
DUKE FIELD     FAIR      68  66  94 NW2       29.98
VALPARAISO     MOCLDY    73  67  79 CALM      29.97F
MARY ESTHER    PTCLDY    71  65  79 N2        29.96F
TRI COUNTY     FAIR      67  66  97 CALM      29.98F
PANAMA CITY    FAIR      72  67  84 CALM      29.96F
TYNDALL AFB    PTCLDY    72  67  83 NW2       29.97F
APALACHICOLA   CLEAR     68  65  90 CALM      29.96F

STATION/POSITION SKY/WX   TEMP    WIND        PRES    WAVE   SWELL
                          AIR SEA DIR/SP/G            HT/PER HT/PER
                          (F)     (DEG/KT/KT) (MB)    (FT/S) (FT/S)
30.1N   87.6W              81 83  330/  8/ 10 1015.1F   0
29.2N   88.2W              82 84  360/  2/  4 1015.5F
28.8N   86.0W              81 85  170/  2/  2 1015.0    1
PANAMA CITY BEAC           78 81  320/  4/  6 1014.6F
CAPE SAN BLAS    NOT AVBL
TOWER C                    80     290/  3/  4 1014.7F
28.5N   84.5W              82 85  150/  2/  2 1014.8F   1/ 8

$$
FLZ011-016>038-118-127-128-134-139-239-010700-
NORTH FLORIDA

CITY           SKY/WX    TMP DP  RH WIND       PRES   REMARKS
MARIANNA       PTCLDY    72  69  90 CALM      29.96F
TALLAHASSEE    PTCLDY    72  65  78 CALM      29.96F
PERRY          PTCLDY    70  68  94 CALM      29.97F
CROSS CITY       N/A     72  68  87 CALM      29.97F
GAINESVILLE    CLEAR     74  73  97 CALM      29.97F
MAYPORT NAS    PTCLDY    83  75  77 SE10      29.97F
JACKSONVILLE   PTCLDY    78  75  90 CALM      29.96F
JAX NAS        MOCLDY    84  76  76 E6        29.97F
JAX CRAIG      PTCLDY    79  77  94 SE3       29.97F
JAX CECIL      PTCLDY    73  73 100 CALM      29.97F
FERNANDINA BEA FAIR      82  73  74 SE8       29.96F
ST AUGUSTINE   CLEAR     81  74  79 SE7       29.97F

STATION/POSITION SKY/WX   TEMP    WIND        PRES    WAVE   SWELL
                          AIR SEA DIR/SP/G            HT/PER HT/PER
                          (F)     (DEG/KT/KT) (MB)    (FT/S) (FT/S)
SHELL POINT                78     290/  4/  7   N/A
KEATON BEACH               75      60/  1/  2 1014.7F
CEDAR KEY                  78      10/  2/  3 1015.7F
FERNANDINA                 83 87  140/  5/  8 1014.5F
30.7N   81.3W                 86                N/A     3/ 4
MAYPORT                    83 86  140/  3/  8   N/A
31.4N   80.9W              84 85  140/ 12/ 16 1015.1F   3/ 5   2/ 6
ST AUGUSTINE               81     160/  9/  9 1015.5F

$$
FLZ040-043>046-052-053-057-058-063-144-010700-
INTERIOR CENTRAL FLORIDA

CITY           SKY/WX    TMP DP  RH WIND       PRES   REMARKS
OCALA          CLEAR     72  61  68 CALM      29.98S
LEESBURG       CLEAR     78  70  76 W6        29.98S
SANFORD        CLEAR     79  77  94 S7        29.96F
ORLANDO EXEC   CLEAR     81  73  76 S6        29.97S
ORLANDO INTL   CLEAR     79  71  76 SW5       29.98S
WINTER HAVEN   CLEAR     79  69  71 CALM      29.99F
LAKELAND       CLEAR     73  68  83 CALM      29.99F
BARTOW         FAIR      75  72  88 CALM      29.99F
OKEECHOBEE     CLOUDY    75  75 100 MISG      29.99F

$$
FLZ041-047-054-059-064-141-147-010700-
EAST CENTRAL FLORIDA

CITY           SKY/WX    TMP DP  RH WIND       PRES   REMARKS
DAYTONA BEACH  PTCLDY    79  75  87 VRB3      29.97F
DELAND         CLEAR     77  73  88 S3        29.98S
JFK SPACE CTR  PTCLDY    80  80  98 S7        29.97
CAPE CANAVERAL CLEAR     80  74  82 S9        29.97
PATRICK AFB    PTCLDY    80  76  86 S8        29.98F
MELBOURNE      MOCLDY    79  75  87 S7        29.98F
VERO BEACH     CLEAR     75  73  93 S6        29.98F
FT PIERCE      CLEAR     75  72  90 CALM      29.98F
STUART         PTCLDY    75  73  94 SE5       29.99F

STATION/POSITION SKY/WX   TEMP    WIND        PRES    WAVE   SWELL
                          AIR SEA DIR/SP/G            HT/PER HT/PER
                          (F)     (DEG/KT/KT) (MB)    (FT/S) (FT/S)
28.5N   80.2W              83 83  160/ 14/ 17 1015.5F
28.9N   78.5W              83 84  140/ 14/ 16 1016.3F   3/ 4   2/ 8
TRIDENT PIER               81 85  170/  7/ 11 1014.8F
28.4N   80.5W                 84                N/A     3/ 4
27.6N   80.2W                 82                N/A     2/ 3

$$
FLZ050-056-061-142-242-148-248-149-249-151-251-155-255-
160-260-010700-
WEST CENTRAL FLORIDA

CITY           SKY/WX    TMP DP  RH WIND       PRES   REMARKS
CRYSTAL RIVER  FAIR      72  66  83 CALM      29.98S
INVERNESS      FAIR      72  64  78 CALM      29.99R
BROOKSVILLE    CLEAR     73  70  90 CALM      29.99S
ZEPHYRHILLS    FAIR      70  70 100 CALM      30.00R
CLEARWATER     CLOUDY    78  70  76 CALM      29.97F
TAMPA INTL     MOCLDY    80  69  69 CALM      29.98F
TAMPA EXEC     CLOUDY    77  73  88 CALM      29.99S
MACDILL AFB    MOCLDY    75  70  84 E2        29.98
ST PETERSBURG  PTCLDY    83  69  62 CALM      29.96F
SARASOTA       PTCLDY    78  69  73 CALM      29.96F
VENICE         FAIR      79  70  73 CALM      29.98F

STATION/POSITION SKY/WX   TEMP    WIND        PRES    WAVE   SWELL
                          AIR SEA DIR/SP/G            HT/PER HT/PER
                          (F)     (DEG/KT/KT) (MB)    (FT/S) (FT/S)
CEDAR KEY                  78      10/  2/  3 1015.7F
28.5N   84.5W              82 85  150/  2/  2 1014.8F   1/ 8
27.3N   84.3W                 86                N/A     1
CLEARWATER BEACH           84 89  360/  5/  6 1014.7F
MIDDLE TAMPA BAY           83     350/  5/  7 1015.3F
VENICE                     81 89   50/  4/  4 1014.6F

$$
FLZ066-069-070-075>078-162-262-165-265-010700-
SOUTHWEST FLORIDA AND KEYS

CITY           SKY/WX    TMP DP  RH WIND       PRES   REMARKS
PUNTA GORDA    PTCLDY    79  74  84 CALM      29.98F
FT MYERS       PTCLDY    79  76  90 SE5       29.96F
SOUTHWEST INTL PTCLDY    78  75  90 CALM      29.97F
NAPLES         MOCLDY    79  74  84 CALM      29.97F
MARCO ISLAND   CLEAR     79  73  83 E5        29.97F
MARATHON       PTCLDY    85  73  67 E5        29.98F
KEY WEST NAS   PTCLDY    84  72  67 E9        29.97F
KEY WEST INTL  PTCLDY    85  72  65 E10       29.98S

STATION/POSITION SKY/WX   TEMP    WIND        PRES    WAVE   SWELL
                          AIR SEA DIR/SP/G            HT/PER HT/PER
                          (F)     (DEG/KT/KT) (MB)    (FT/S) (FT/S)
VENICE                     81 89   50/  4/  4 1014.6F
NAPLES                     80 93  120/  3/  5 1015.5F
DRY TORTUGAS               86     140/  5/  6 1014.7F
NW FL BAY                  84      80/  9/ 10 1016.0F
SAND KEY                   85     110/ 10/ 12 1015.0F
SOMBRERO KEY               85     110/ 11/ 12 1015.8F
LONG KEY                   85 91  140/  7/  8 1016.3F
MOLASSES REEF              85 87  120/  7/  8 1015.3F

$$
FLZ067-068-071>074-168-172>174-010700-
SOUTHEAST FLORIDA

CITY           SKY/WX    TMP DP  RH WIND       PRES   REMARKS
W PALM BEACH   MOCLDY    80  75  84 SE5       29.98F
FT LAUDER-EXEC MOCLDY    78  77  96 CALM      29.98F
FT LAUDERDALE  MOCLDY    82  73  74 SE6       29.98F
POMPANO BEACH  PTCLDY   N/A N/A N/A MISG      29.99F
PEMBROKE PINES MOCLDY    78  75  90 CALM      30.00F
OPA LOCKA      MOCLDY    78  74  87 CALM      29.99F
MIAMI          MOCLDY    79  75  87 E3        29.99F
WEST KENDALL   MOCLDY    79  74  84 E7        29.99F
HOMESTEAD      MOCLDY    78  74  88 N2        29.99

STATION/POSITION SKY/WX   TEMP    WIND        PRES    WAVE   SWELL
                          AIR SEA DIR/SP/G            HT/PER HT/PER
                          (F)     (DEG/KT/KT) (MB)    (FT/S) (FT/S)
PORT EVERGLADES            84     140/  7/  8 1015.5
VIRGINIA KEY               84 89  100/  5/  7   N/A
LAKE WORTH                 83 83  160/ 10/ 11 1015.3F
FOWEY ROCKS                81 86  140/ 10/ 11 1015.7F
SETTLEMENT POINT           83     130/  8/ 10 1016.5F

$$



USA.gov is the U.S. government's official web portal to all federal, state and local government web resources and services.